Regional Weather Roundup
Issued by NWS

Home | Current Version | Previous Version | Graphics & Text | Print | Product List | Glossary On
Versions: 1 2 3 4 5 6 7 8 9 10 11 12 13 14 15 16 17 18 19 20 21 22 23 24 25 26 27 28 29 30 31 32 33 34 35 36 37 38 39 40 41 42 43 44 45 46 47 48 49 50
000
ASUS45 KBOU 201507
RWRCO

WEATHER ROUNDUP FOR COLORADO
NATIONAL WEATHER SERVICE DENVER/BOULDER CO
800 AM MST FRI JAN 20 2017

NOTE: "FAIR" INDICATES FEW OR NO CLOUDS BELOW 12000 FEET WITH NO
SIGNIFICANT WEATHER AND/OR OBSTRUCTIONS TO VISIBILITY.

COZ001>005-013-030-031-201600-
...NORTHWEST COLORADO...

CITY           SKY/WX    TMP DP  RH WIND       PRES   REMARKS
CRAIG          LGT SNOW  26  23  88 W3        29.57S FOG
HAYDEN         CLOUDY    25  21  86 W6        29.55S WCI  18
MEEKER         CLOUDY    25  23  92 CALM      29.57R
MOUNT WERNER   NOT AVBL
STEAMBOAT SPGS CLOUDY    23  22  95 CALM      29.54S
WALDEN           N/A     19  16  86 SE6       29.50S WCI  11
$$

COZ006>008-011-201600-
...WEST CENTRAL VALLEYS...

CITY           SKY/WX    TMP DP  RH WIND       PRES   REMARKS
GRAND JUNCTION SNOW      31  31 100 W3        29.61R VSB 1/4
MONTROSE       CLOUDY    31  25  78 CALM      29.62R
EAGLE          LGT SNOW  25  25 100 CALM      29.56S FOG
RIFLE          LGT SNOW  30  30 100 CALM      29.58S FOG
DELTA          CLOUDY    33  33  98 CALM      29.62R VSB 1
NUCLA          CLOUDY    32  28  86 S7        29.67S WCI  26
$$

COZ017>023-064>068-201600-
...SOUTHWEST COLORADO...

CITY           SKY/WX    TMP DP  RH WIND       PRES   REMARKS
DURANGO        CLOUDY    26  23  88 SW6       29.67R WCI  19
CORTEZ         LGT SNOW  31  27  85 CALM      29.69R FOG
PAGOSA SPRINGS FLURRIES  24  23  94 SW5       29.66R WCI  18
TELLURIDE      CLOUDY    21  18  87 SE3       29.62S
WOLF CREEK PAS CLOUDY     9   7  92 SW15G28   29.59R WCI  -8
$$

COZ009-010-012-014-032>034-037-058>063-201600-
...CENTRAL COLORADO...

CITY           SKY/WX    TMP DP  RH WIND       PRES   REMARKS
ASPEN          LGT SNOW  25  24  96 NW3       29.52S VSB 1
BUENA VISTA    MOCLDY    19  16  87 W5        29.49S WCI  12
COPPER MTN     LGT SNOW  19  12  73 MISG      29.48F VSB 3/4
BERTHOUD PASS  NOT AVBL
COTTONWOOD PAS CLOUDY    27  18  69 NW6       29.48R WCI  20
GUNNISON       LGT SNOW  10   9  92 CALM      29.60R VSB 3/4
KREMMLING      CLOUDY    19  16  86 CALM      29.55S FOG
LEADVILLE      LGT SNOW  18  14  84 N3        29.47S VSB 1
MONARCH PASS   CLOUDY    12   9  85 MISG      29.56R
SALIDA         MOCLDY    32  17  54 SW17G24   29.56S WCI  20
SUNLIGHT       SNOW      18  14  86 SW10G25   29.56S VSB 1/4 WCI   6
WILKERSON PASS CLOUDY   N/A N/A N/A NW9       29.49S
$$

COZ069>075-201600-
...SAN LUIS VALLEY/SANGRE DE CRISTO MOUNTAINS...

CITY           SKY/WX    TMP DP  RH WIND       PRES   REMARKS
ALAMOSA        FOG       16  15  96 SE6       29.56S VSB 1/4 WCI   7
LA VETA PASS   LGT SNOW  16  12  86 NE29G49   29.47S WCI  -4
SAGUACHE       LGT SNOW  23  21  93 NW5       29.57R WCI  17
$$

COZ035-036-038>040-201600-
...NORTHERN COLORADO FRONT RANGE...

CITY           SKY/WX    TMP DP  RH WIND       PRES   REMARKS
DENVER INTL AP CLOUDY    34  25  69 S6        29.46S WCI  29
DMNS CITY PARK   N/A     37  26  65 N3        29.46R
AURORA         CLOUDY    33  26  76 SE5       29.46F WCI  29
FRONT RANGE AP CLOUDY    37  28  70 SE5       29.47S
ERIE MUNI ARPT CLOUDY    31  28  87 CALM      29.47R
BOULDER MUN AP CLOUDY    34  27  75 CALM      29.46S
CENTENNIAL     FLURRIES  32  30  92 E5        29.46S WCI  27
BROOMFIELD     CLOUDY    36  25  64 CALM      29.46S
FORT COLLINS   FAIR      36  27  69 CALM      29.47S
LONGMONT       CLOUDY    35  28  76 CALM      29.49R
$$

COZ041-046-047-076>085-087-088-201600-
...PIKES PEAK/PALMER DIVIDE AND SOUTHERN FOOTHILLS...

CITY           SKY/WX    TMP DP  RH WIND       PRES   REMARKS
COLO. SPRINGS  CLOUDY    34  28  79 CALM      29.47R
A. F. ACADEMY  FLURRIES  32  28  86 NE13      29.44S WCI  22
SCHRIEVER AFB  NOT AVBL
ELLICOTT       MOCLDY   N/A N/A N/A E14       29.44S
FALCON         CLOUDY    30  29  97 NE7       29.46S WCI  23
FORT CARSON    LGT RAIN  34  28  80 VRB5      29.47S WCI  30
LIMON          CLOUDY    32  26  78 W5        29.46F WCI  27
MONUMENT HILL  CLOUDY    28  28 100 CALM      29.47S
TRINIDAD       FAIR      33  16  49 W21       29.46F WCI  21
$$

COZ042>045-048>051-090-091-201600-
...NORTHEAST COLORADO...

CITY           SKY/WX    TMP DP  RH WIND       PRES   REMARKS
GREELEY ARPT   MOCLDY    30  27  88 CALM      29.48S
AKRON          CLOUDY    30  24  78 W8        29.46R WCI  22
BURLINGTON     CLOUDY    32  28  85 NW12      29.43F WCI  23
WRAY           NOT AVBL
STERLING       CLOUDY    30  27  86 CALM      29.46F
HOLYOKE        FAIR      28  23  80 CALM      29.46R
FORT MORGAN    CLOUDY    34  26  71 W6        29.48R WCI  29
$$

COZ086-089-092>099-201600-
...SOUTHEAST COLORADO...

CITY           SKY/WX    TMP DP  RH WIND       PRES   REMARKS
PUEBLO         CLOUDY    38  33  82 CALM      29.47S
LA JUNTA       FAIR      34  27  75 W12       29.44F WCI  25
LAMAR          FOG       31  29  92 W7        29.45R VSB 1/2 WCI  24
SPRINGFIELD      N/A     35  32  88 SW12      29.45R WCI  27
$$



USA.gov is the U.S. government's official web portal to all federal, state and local government web resources and services.